Index of /20260430/WXO-DD/model_gdps/15km/12/180
Name Last modified Size Description
Parent Directory -
20260430T12Z_MSC_GDPS_AbsoluteVorticity_IsbL-0200_LatLon0.15_PT180H.grib2 2026-04-30 16:31 1.5M
20260430T12Z_MSC_GDPS_AbsoluteVorticity_IsbL-0250_LatLon0.15_PT180H.grib2 2026-04-30 16:31 1.3M
20260430T12Z_MSC_GDPS_AbsoluteVorticity_IsbL-0500_LatLon0.15_PT180H.grib2 2026-04-30 16:31 1.5M
20260430T12Z_MSC_GDPS_AbsoluteVorticity_IsbL-0700_LatLon0.15_PT180H.grib2 2026-04-30 16:31 1.3M
20260430T12Z_MSC_GDPS_AbsoluteVorticity_IsbL-0850_LatLon0.15_PT180H.grib2 2026-04-30 16:31 1.6M
20260430T12Z_MSC_GDPS_AirTemp-Max_AGL-2m_LatLon0.15_PT180H.grib2 2026-04-30 16:31 746K
20260430T12Z_MSC_GDPS_AirTemp-Min_AGL-2m_LatLon0.15_PT180H.grib2 2026-04-30 16:31 793K
20260430T12Z_MSC_GDPS_AirTemp_AGL-120m_LatLon0.15_PT180H.grib2 2026-04-30 16:31 903K
20260430T12Z_MSC_GDPS_AirTemp_AGL-2m_LatLon0.15_PT180H.grib2 2026-04-30 16:31 1.0M
20260430T12Z_MSC_GDPS_AirTemp_AGL-40m_LatLon0.15_PT180H.grib2 2026-04-30 16:31 926K
20260430T12Z_MSC_GDPS_AirTemp_AGL-80m_LatLon0.15_PT180H.grib2 2026-04-30 16:31 913K
20260430T12Z_MSC_GDPS_AirTemp_IsbL-0001_LatLon0.15_PT180H.grib2 2026-04-30 16:31 663K
20260430T12Z_MSC_GDPS_AirTemp_IsbL-0005_LatLon0.15_PT180H.grib2 2026-04-30 16:31 693K
20260430T12Z_MSC_GDPS_AirTemp_IsbL-0010_LatLon0.15_PT180H.grib2 2026-04-30 16:31 694K
20260430T12Z_MSC_GDPS_AirTemp_IsbL-0020_LatLon0.15_PT180H.grib2 2026-04-30 16:31 788K
20260430T12Z_MSC_GDPS_AirTemp_IsbL-0030_LatLon0.15_PT180H.grib2 2026-04-30 16:31 835K
20260430T12Z_MSC_GDPS_AirTemp_IsbL-0050_LatLon0.15_PT180H.grib2 2026-04-30 16:31 798K
20260430T12Z_MSC_GDPS_AirTemp_IsbL-0100_LatLon0.15_PT180H.grib2 2026-04-30 16:31 962K
20260430T12Z_MSC_GDPS_AirTemp_IsbL-0150_LatLon0.15_PT180H.grib2 2026-04-30 16:31 1.0M
20260430T12Z_MSC_GDPS_AirTemp_IsbL-0175_LatLon0.15_PT180H.grib2 2026-04-30 16:31 953K
20260430T12Z_MSC_GDPS_AirTemp_IsbL-0200_LatLon0.15_PT180H.grib2 2026-04-30 16:31 969K
20260430T12Z_MSC_GDPS_AirTemp_IsbL-0225_LatLon0.15_PT180H.grib2 2026-04-30 16:31 1.0M
20260430T12Z_MSC_GDPS_AirTemp_IsbL-0250_LatLon0.15_PT180H.grib2 2026-04-30 16:31 1.0M
20260430T12Z_MSC_GDPS_AirTemp_IsbL-0275_LatLon0.15_PT180H.grib2 2026-04-30 16:31 1.0M
20260430T12Z_MSC_GDPS_AirTemp_IsbL-0300_LatLon0.15_PT180H.grib2 2026-04-30 16:31 1.0M
20260430T12Z_MSC_GDPS_AirTemp_IsbL-0350_LatLon0.15_PT180H.grib2 2026-04-30 16:31 926K
20260430T12Z_MSC_GDPS_AirTemp_IsbL-0400_LatLon0.15_PT180H.grib2 2026-04-30 16:31 941K
20260430T12Z_MSC_GDPS_AirTemp_IsbL-0450_LatLon0.15_PT180H.grib2 2026-04-30 16:31 966K
20260430T12Z_MSC_GDPS_AirTemp_IsbL-0500_LatLon0.15_PT180H.grib2 2026-04-30 16:31 1.0M
20260430T12Z_MSC_GDPS_AirTemp_IsbL-0550_LatLon0.15_PT180H.grib2 2026-04-30 16:31 802K
20260430T12Z_MSC_GDPS_AirTemp_IsbL-0600_LatLon0.15_PT180H.grib2 2026-04-30 16:31 893K
20260430T12Z_MSC_GDPS_AirTemp_IsbL-0650_LatLon0.15_PT180H.grib2 2026-04-30 16:31 918K
20260430T12Z_MSC_GDPS_AirTemp_IsbL-0700_LatLon0.15_PT180H.grib2 2026-04-30 16:31 950K
20260430T12Z_MSC_GDPS_AirTemp_IsbL-0750_LatLon0.15_PT180H.grib2 2026-04-30 16:31 1.0M
20260430T12Z_MSC_GDPS_AirTemp_IsbL-0800_LatLon0.15_PT180H.grib2 2026-04-30 16:31 1.1M
20260430T12Z_MSC_GDPS_AirTemp_IsbL-0850_LatLon0.15_PT180H.grib2 2026-04-30 16:31 1.1M
20260430T12Z_MSC_GDPS_AirTemp_IsbL-0875_LatLon0.15_PT180H.grib2 2026-04-30 16:31 1.1M
20260430T12Z_MSC_GDPS_AirTemp_IsbL-0900_LatLon0.15_PT180H.grib2 2026-04-30 16:31 1.1M
20260430T12Z_MSC_GDPS_AirTemp_IsbL-0925_LatLon0.15_PT180H.grib2 2026-04-30 16:31 1.1M
20260430T12Z_MSC_GDPS_AirTemp_IsbL-0950_LatLon0.15_PT180H.grib2 2026-04-30 16:31 1.1M
20260430T12Z_MSC_GDPS_AirTemp_IsbL-0970_LatLon0.15_PT180H.grib2 2026-04-30 16:31 1.1M
20260430T12Z_MSC_GDPS_AirTemp_IsbL-0985_LatLon0.15_PT180H.grib2 2026-04-30 16:31 1.1M
20260430T12Z_MSC_GDPS_AirTemp_IsbL-1000_LatLon0.15_PT180H.grib2 2026-04-30 16:31 1.1M
20260430T12Z_MSC_GDPS_AirTemp_IsbL-1015_LatLon0.15_PT180H.grib2 2026-04-30 16:31 1.1M
20260430T12Z_MSC_GDPS_Albedo_Sfc_LatLon0.15_PT180H.grib2 2026-04-30 16:31 243K
20260430T12Z_MSC_GDPS_CAPE_Sfc_LatLon0.15_PT180H.grib2 2026-04-30 16:31 3.9M
20260430T12Z_MSC_GDPS_CIN_Sfc_LatLon0.15_PT180H.grib2 2026-04-30 16:31 2.9M
20260430T12Z_MSC_GDPS_CloudWater_EAtm_LatLon0.15_PT180H.grib2 2026-04-30 16:31 538K
20260430T12Z_MSC_GDPS_ConvectivePrecip-Accum_Sfc_LatLon0.15_PT180H.grib2 2026-04-30 16:31 3.8M
20260430T12Z_MSC_GDPS_DewPointDepression_AGL-2m_LatLon0.15_PT180H.grib2 2026-04-30 16:31 762K
20260430T12Z_MSC_GDPS_DewPointDepression_IsbL-0010_LatLon0.15_PT180H.grib2 2026-04-30 16:31 72K
20260430T12Z_MSC_GDPS_DewPointDepression_IsbL-0020_LatLon0.15_PT180H.grib2 2026-04-30 16:31 67K
20260430T12Z_MSC_GDPS_DewPointDepression_IsbL-0030_LatLon0.15_PT180H.grib2 2026-04-30 16:31 86K
20260430T12Z_MSC_GDPS_DewPointDepression_IsbL-0050_LatLon0.15_PT180H.grib2 2026-04-30 16:31 377K
20260430T12Z_MSC_GDPS_DewPointDepression_IsbL-0100_LatLon0.15_PT180H.grib2 2026-04-30 16:31 393K
20260430T12Z_MSC_GDPS_DewPointDepression_IsbL-0150_LatLon0.15_PT180H.grib2 2026-04-30 16:31 486K
20260430T12Z_MSC_GDPS_DewPointDepression_IsbL-0175_LatLon0.15_PT180H.grib2 2026-04-30 16:31 584K
20260430T12Z_MSC_GDPS_DewPointDepression_IsbL-0200_LatLon0.15_PT180H.grib2 2026-04-30 16:31 688K
20260430T12Z_MSC_GDPS_DewPointDepression_IsbL-0225_LatLon0.15_PT180H.grib2 2026-04-30 16:31 767K
20260430T12Z_MSC_GDPS_DewPointDepression_IsbL-0250_LatLon0.15_PT180H.grib2 2026-04-30 16:31 865K
20260430T12Z_MSC_GDPS_DewPointDepression_IsbL-0275_LatLon0.15_PT180H.grib2 2026-04-30 16:31 894K
20260430T12Z_MSC_GDPS_DewPointDepression_IsbL-0300_LatLon0.15_PT180H.grib2 2026-04-30 16:31 936K
20260430T12Z_MSC_GDPS_DewPointDepression_IsbL-0350_LatLon0.15_PT180H.grib2 2026-04-30 16:31 964K
20260430T12Z_MSC_GDPS_DewPointDepression_IsbL-0400_LatLon0.15_PT180H.grib2 2026-04-30 16:31 1.0M
20260430T12Z_MSC_GDPS_DewPointDepression_IsbL-0450_LatLon0.15_PT180H.grib2 2026-04-30 16:31 1.0M
20260430T12Z_MSC_GDPS_DewPointDepression_IsbL-0500_LatLon0.15_PT180H.grib2 2026-04-30 16:31 1.0M
20260430T12Z_MSC_GDPS_DewPointDepression_IsbL-0550_LatLon0.15_PT180H.grib2 2026-04-30 16:31 1.0M
20260430T12Z_MSC_GDPS_DewPointDepression_IsbL-0600_LatLon0.15_PT180H.grib2 2026-04-30 16:31 1.1M
20260430T12Z_MSC_GDPS_DewPointDepression_IsbL-0650_LatLon0.15_PT180H.grib2 2026-04-30 16:31 1.1M
20260430T12Z_MSC_GDPS_DewPointDepression_IsbL-0700_LatLon0.15_PT180H.grib2 2026-04-30 16:31 1.1M
20260430T12Z_MSC_GDPS_DewPointDepression_IsbL-0750_LatLon0.15_PT180H.grib2 2026-04-30 16:31 1.1M
20260430T12Z_MSC_GDPS_DewPointDepression_IsbL-0800_LatLon0.15_PT180H.grib2 2026-04-30 16:31 1.2M
20260430T12Z_MSC_GDPS_DewPointDepression_IsbL-0850_LatLon0.15_PT180H.grib2 2026-04-30 16:31 1.2M
20260430T12Z_MSC_GDPS_DewPointDepression_IsbL-0875_LatLon0.15_PT180H.grib2 2026-04-30 16:31 1.1M
20260430T12Z_MSC_GDPS_DewPointDepression_IsbL-0900_LatLon0.15_PT180H.grib2 2026-04-30 16:31 1.1M
20260430T12Z_MSC_GDPS_DewPointDepression_IsbL-0925_LatLon0.15_PT180H.grib2 2026-04-30 16:31 1.0M
20260430T12Z_MSC_GDPS_DewPointDepression_IsbL-0950_LatLon0.15_PT180H.grib2 2026-04-30 16:31 1.0M
20260430T12Z_MSC_GDPS_DewPointDepression_IsbL-0970_LatLon0.15_PT180H.grib2 2026-04-30 16:31 1.0M
20260430T12Z_MSC_GDPS_DewPointDepression_IsbL-0985_LatLon0.15_PT180H.grib2 2026-04-30 16:31 1.0M
20260430T12Z_MSC_GDPS_DewPointDepression_IsbL-1000_LatLon0.15_PT180H.grib2 2026-04-30 16:31 1.0M
20260430T12Z_MSC_GDPS_DewPointDepression_IsbL-1015_LatLon0.15_PT180H.grib2 2026-04-30 16:31 918K
20260430T12Z_MSC_GDPS_DewPoint_AGL-2m_LatLon0.15_PT180H.grib2 2026-04-30 16:31 605K
20260430T12Z_MSC_GDPS_DownwardLongwaveRadiationFlux-Accum_Sfc_LatLon0.15_PT180H.grib2 2026-04-30 16:31 652K
20260430T12Z_MSC_GDPS_DownwardShortwaveRadiationFlux-Accum_NTAtm_LatLon0.15_PT180H.grib2 2026-04-30 16:31 248K
20260430T12Z_MSC_GDPS_DownwardShortwaveRadiationFlux-Accum_Sfc_LatLon0.15_PT180H.grib2 2026-04-30 16:31 837K
20260430T12Z_MSC_GDPS_FreezingRain-Accum12h_Sfc_LatLon0.15_PT180H.grib2 2026-04-30 16:31 99K
20260430T12Z_MSC_GDPS_FreezingRain-Accum24h_Sfc_LatLon0.15_PT180H.grib2 2026-04-30 16:31 146K
20260430T12Z_MSC_GDPS_FreezingRain-Accum6h_Sfc_LatLon0.15_PT180H.grib2 2026-04-30 16:31 58K
20260430T12Z_MSC_GDPS_FreezingRain-Accum_Sfc_LatLon0.15_PT180H.grib2 2026-04-30 16:31 494K
20260430T12Z_MSC_GDPS_GeopotentialHeight_IsbL-0001_LatLon0.15_PT180H.grib2 2026-04-30 16:31 428K
20260430T12Z_MSC_GDPS_GeopotentialHeight_IsbL-0005_LatLon0.15_PT180H.grib2 2026-04-30 16:31 483K
20260430T12Z_MSC_GDPS_GeopotentialHeight_IsbL-0010_LatLon0.15_PT180H.grib2 2026-04-30 16:31 473K
20260430T12Z_MSC_GDPS_GeopotentialHeight_IsbL-0020_LatLon0.15_PT180H.grib2 2026-04-30 16:31 411K
20260430T12Z_MSC_GDPS_GeopotentialHeight_IsbL-0030_LatLon0.15_PT180H.grib2 2026-04-30 16:31 414K
20260430T12Z_MSC_GDPS_GeopotentialHeight_IsbL-0050_LatLon0.15_PT180H.grib2 2026-04-30 16:31 559K
20260430T12Z_MSC_GDPS_GeopotentialHeight_IsbL-0100_LatLon0.15_PT180H.grib2 2026-04-30 16:31 599K
20260430T12Z_MSC_GDPS_GeopotentialHeight_IsbL-0150_LatLon0.15_PT180H.grib2 2026-04-30 16:31 620K
20260430T12Z_MSC_GDPS_GeopotentialHeight_IsbL-0175_LatLon0.15_PT180H.grib2 2026-04-30 16:31 623K
20260430T12Z_MSC_GDPS_GeopotentialHeight_IsbL-0200_LatLon0.15_PT180H.grib2 2026-04-30 16:31 629K
20260430T12Z_MSC_GDPS_GeopotentialHeight_IsbL-0225_LatLon0.15_PT180H.grib2 2026-04-30 16:31 635K
20260430T12Z_MSC_GDPS_GeopotentialHeight_IsbL-0250_LatLon0.15_PT180H.grib2 2026-04-30 16:31 636K
20260430T12Z_MSC_GDPS_GeopotentialHeight_IsbL-0275_LatLon0.15_PT180H.grib2 2026-04-30 16:31 638K
20260430T12Z_MSC_GDPS_GeopotentialHeight_IsbL-0300_LatLon0.15_PT180H.grib2 2026-04-30 16:31 629K
20260430T12Z_MSC_GDPS_GeopotentialHeight_IsbL-0350_LatLon0.15_PT180H.grib2 2026-04-30 16:31 623K
20260430T12Z_MSC_GDPS_GeopotentialHeight_IsbL-0400_LatLon0.15_PT180H.grib2 2026-04-30 16:31 617K
20260430T12Z_MSC_GDPS_GeopotentialHeight_IsbL-0450_LatLon0.15_PT180H.grib2 2026-04-30 16:31 539K
20260430T12Z_MSC_GDPS_GeopotentialHeight_IsbL-0500_LatLon0.15_PT180H.grib2 2026-04-30 16:31 527K
20260430T12Z_MSC_GDPS_GeopotentialHeight_IsbL-0550_LatLon0.15_PT180H.grib2 2026-04-30 16:31 520K
20260430T12Z_MSC_GDPS_GeopotentialHeight_IsbL-0600_LatLon0.15_PT180H.grib2 2026-04-30 16:31 519K
20260430T12Z_MSC_GDPS_GeopotentialHeight_IsbL-0650_LatLon0.15_PT180H.grib2 2026-04-30 16:31 686K
20260430T12Z_MSC_GDPS_GeopotentialHeight_IsbL-0700_LatLon0.15_PT180H.grib2 2026-04-30 16:31 688K
20260430T12Z_MSC_GDPS_GeopotentialHeight_IsbL-0750_LatLon0.15_PT180H.grib2 2026-04-30 16:31 692K
20260430T12Z_MSC_GDPS_GeopotentialHeight_IsbL-0800_LatLon0.15_PT180H.grib2 2026-04-30 16:31 702K
20260430T12Z_MSC_GDPS_GeopotentialHeight_IsbL-0850_LatLon0.15_PT180H.grib2 2026-04-30 16:31 709K
20260430T12Z_MSC_GDPS_GeopotentialHeight_IsbL-0875_LatLon0.15_PT180H.grib2 2026-04-30 16:31 716K
20260430T12Z_MSC_GDPS_GeopotentialHeight_IsbL-0900_LatLon0.15_PT180H.grib2 2026-04-30 16:31 724K
20260430T12Z_MSC_GDPS_GeopotentialHeight_IsbL-0925_LatLon0.15_PT180H.grib2 2026-04-30 16:31 731K
20260430T12Z_MSC_GDPS_GeopotentialHeight_IsbL-0950_LatLon0.15_PT180H.grib2 2026-04-30 16:31 739K
20260430T12Z_MSC_GDPS_GeopotentialHeight_IsbL-0970_LatLon0.15_PT180H.grib2 2026-04-30 16:31 750K
20260430T12Z_MSC_GDPS_GeopotentialHeight_IsbL-0985_LatLon0.15_PT180H.grib2 2026-04-30 16:31 764K
20260430T12Z_MSC_GDPS_GeopotentialHeight_IsbL-1000_LatLon0.15_PT180H.grib2 2026-04-30 16:31 785K
20260430T12Z_MSC_GDPS_GeopotentialHeight_IsbL-1015_LatLon0.15_PT180H.grib2 2026-04-30 16:31 807K
20260430T12Z_MSC_GDPS_Humidex_Sfc_LatLon0.15_PT180H.grib2 2026-04-30 16:31 5.3M
20260430T12Z_MSC_GDPS_IcePellets-Accum12h_Sfc_LatLon0.15_PT180H.grib2 2026-04-30 16:31 7.1K
20260430T12Z_MSC_GDPS_IcePellets-Accum24h_Sfc_LatLon0.15_PT180H.grib2 2026-04-30 16:31 11K
20260430T12Z_MSC_GDPS_IcePellets-Accum6h_Sfc_LatLon0.15_PT180H.grib2 2026-04-30 16:31 4.8K
20260430T12Z_MSC_GDPS_IcePellets-Accum_Sfc_LatLon0.15_PT180H.grib2 2026-04-30 16:31 150K
20260430T12Z_MSC_GDPS_KIndex_Sfc_LatLon0.15_PT180H.grib2 2026-04-30 16:31 6.5M
20260430T12Z_MSC_GDPS_LatentHeatNetFlux_Sfc_LatLon0.15_PT180H.grib2 2026-04-30 16:31 671K
20260430T12Z_MSC_GDPS_LiftedIndex-MU-VT_IsbL-0500_LatLon0.15_PT180H.grib2 2026-04-30 16:31 5.3M
20260430T12Z_MSC_GDPS_NetLongwaveRadiationFlux-Accum_Sfc_LatLon0.15_PT180H.grib2 2026-04-30 16:31 873K
20260430T12Z_MSC_GDPS_NetShortwaveRadiationFlux-Accum_Sfc_LatLon0.15_PT180H.grib2 2026-04-30 16:31 835K
20260430T12Z_MSC_GDPS_O3MixingRatio_Sfc_LatLon0.15_PT180H.grib2 2026-04-30 16:46 1.9M
20260430T12Z_MSC_GDPS_O3_EAtm_LatLon0.15_PT180H.grib2 2026-04-30 16:46 2.4M
20260430T12Z_MSC_GDPS_PlanetaryBoundaryLayerHeight_Sfc_LatLon0.15_PT180H.grib2 2026-04-30 16:31 2.4M
20260430T12Z_MSC_GDPS_Precip-Accum12h_Sfc_LatLon0.15_PT180H.grib2 2026-04-30 16:31 4.1M
20260430T12Z_MSC_GDPS_Precip-Accum24h_Sfc_LatLon0.15_PT180H.grib2 2026-04-30 16:31 4.6M
20260430T12Z_MSC_GDPS_Precip-Accum6h_Sfc_LatLon0.15_PT180H.grib2 2026-04-30 16:31 3.8M
20260430T12Z_MSC_GDPS_Precip-Accum_Sfc_LatLon0.15_PT180H.grib2 2026-04-30 16:31 5.4M
20260430T12Z_MSC_GDPS_PrecipRate_Sfc_LatLon0.15_PT180H.grib2 2026-04-30 16:31 3.1M
20260430T12Z_MSC_GDPS_PrecipType-Instant_Sfc_LatLon0.15_PT180H.grib2 2026-04-30 16:31 1.5M
20260430T12Z_MSC_GDPS_Pressure_MSL_LatLon0.15_PT180H.grib2 2026-04-30 16:31 718K
20260430T12Z_MSC_GDPS_Pressure_PVU-1.5_LatLon0.15_PT180H.grib2 2026-04-30 16:31 5.8M
20260430T12Z_MSC_GDPS_Pressure_PVU-1_LatLon0.15_PT180H.grib2 2026-04-30 16:31 6.0M
20260430T12Z_MSC_GDPS_Pressure_PVU-2_LatLon0.15_PT180H.grib2 2026-04-30 16:31 5.6M
20260430T12Z_MSC_GDPS_Pressure_Sfc_LatLon0.15_PT180H.grib2 2026-04-30 16:31 1.1M
20260430T12Z_MSC_GDPS_RadiativeTemp_Sfc_LatLon0.15_PT180H.grib2 2026-04-30 16:31 658K
20260430T12Z_MSC_GDPS_Rain-Accum12h_Sfc_LatLon0.15_PT180H.grib2 2026-04-30 16:31 2.8M
20260430T12Z_MSC_GDPS_Rain-Accum24h_Sfc_LatLon0.15_PT180H.grib2 2026-04-30 16:31 3.2M
20260430T12Z_MSC_GDPS_Rain-Accum6h_Sfc_LatLon0.15_PT180H.grib2 2026-04-30 16:31 2.5M
20260430T12Z_MSC_GDPS_Rain-Accum_Sfc_LatLon0.15_PT180H.grib2 2026-04-30 16:31 4.2M
20260430T12Z_MSC_GDPS_RelativeHumidity_AGL-2m_LatLon0.15_PT180H.grib2 2026-04-30 16:31 1.0M
20260430T12Z_MSC_GDPS_RelativeHumidity_IsbL-0010_LatLon0.15_PT180H.grib2 2026-04-30 16:31 191K
20260430T12Z_MSC_GDPS_RelativeHumidity_IsbL-0020_LatLon0.15_PT180H.grib2 2026-04-30 16:31 158K
20260430T12Z_MSC_GDPS_RelativeHumidity_IsbL-0030_LatLon0.15_PT180H.grib2 2026-04-30 16:31 180K
20260430T12Z_MSC_GDPS_RelativeHumidity_IsbL-0050_LatLon0.15_PT180H.grib2 2026-04-30 16:31 329K
20260430T12Z_MSC_GDPS_RelativeHumidity_IsbL-0100_LatLon0.15_PT180H.grib2 2026-04-30 16:31 496K
20260430T12Z_MSC_GDPS_RelativeHumidity_IsbL-0150_LatLon0.15_PT180H.grib2 2026-04-30 16:31 677K
20260430T12Z_MSC_GDPS_RelativeHumidity_IsbL-0175_LatLon0.15_PT180H.grib2 2026-04-30 16:31 798K
20260430T12Z_MSC_GDPS_RelativeHumidity_IsbL-0200_LatLon0.15_PT180H.grib2 2026-04-30 16:31 712K
20260430T12Z_MSC_GDPS_RelativeHumidity_IsbL-0225_LatLon0.15_PT180H.grib2 2026-04-30 16:31 793K
20260430T12Z_MSC_GDPS_RelativeHumidity_IsbL-0250_LatLon0.15_PT180H.grib2 2026-04-30 16:31 870K
20260430T12Z_MSC_GDPS_RelativeHumidity_IsbL-0275_LatLon0.15_PT180H.grib2 2026-04-30 16:31 897K
20260430T12Z_MSC_GDPS_RelativeHumidity_IsbL-0300_LatLon0.15_PT180H.grib2 2026-04-30 16:31 938K
20260430T12Z_MSC_GDPS_RelativeHumidity_IsbL-0350_LatLon0.15_PT180H.grib2 2026-04-30 16:31 954K
20260430T12Z_MSC_GDPS_RelativeHumidity_IsbL-0400_LatLon0.15_PT180H.grib2 2026-04-30 16:31 1.0M
20260430T12Z_MSC_GDPS_RelativeHumidity_IsbL-0450_LatLon0.15_PT180H.grib2 2026-04-30 16:31 1.0M
20260430T12Z_MSC_GDPS_RelativeHumidity_IsbL-0500_LatLon0.15_PT180H.grib2 2026-04-30 16:31 1.0M
20260430T12Z_MSC_GDPS_RelativeHumidity_IsbL-0550_LatLon0.15_PT180H.grib2 2026-04-30 16:31 1.0M
20260430T12Z_MSC_GDPS_RelativeHumidity_IsbL-0600_LatLon0.15_PT180H.grib2 2026-04-30 16:31 1.0M
20260430T12Z_MSC_GDPS_RelativeHumidity_IsbL-0650_LatLon0.15_PT180H.grib2 2026-04-30 16:31 1.1M
20260430T12Z_MSC_GDPS_RelativeHumidity_IsbL-0700_LatLon0.15_PT180H.grib2 2026-04-30 16:31 1.1M
20260430T12Z_MSC_GDPS_RelativeHumidity_IsbL-0750_LatLon0.15_PT180H.grib2 2026-04-30 16:31 1.1M
20260430T12Z_MSC_GDPS_RelativeHumidity_IsbL-0800_LatLon0.15_PT180H.grib2 2026-04-30 16:31 1.2M
20260430T12Z_MSC_GDPS_RelativeHumidity_IsbL-0850_LatLon0.15_PT180H.grib2 2026-04-30 16:31 1.3M
20260430T12Z_MSC_GDPS_RelativeHumidity_IsbL-0875_LatLon0.15_PT180H.grib2 2026-04-30 16:31 1.3M
20260430T12Z_MSC_GDPS_RelativeHumidity_IsbL-0900_LatLon0.15_PT180H.grib2 2026-04-30 16:31 1.2M
20260430T12Z_MSC_GDPS_RelativeHumidity_IsbL-0925_LatLon0.15_PT180H.grib2 2026-04-30 16:31 1.2M
20260430T12Z_MSC_GDPS_RelativeHumidity_IsbL-0950_LatLon0.15_PT180H.grib2 2026-04-30 16:31 1.2M
20260430T12Z_MSC_GDPS_RelativeHumidity_IsbL-0970_LatLon0.15_PT180H.grib2 2026-04-30 16:31 1.2M
20260430T12Z_MSC_GDPS_RelativeHumidity_IsbL-0985_LatLon0.15_PT180H.grib2 2026-04-30 16:31 1.2M
20260430T12Z_MSC_GDPS_RelativeHumidity_IsbL-1000_LatLon0.15_PT180H.grib2 2026-04-30 16:31 1.1M
20260430T12Z_MSC_GDPS_RelativeHumidity_IsbL-1015_LatLon0.15_PT180H.grib2 2026-04-30 16:31 1.0M
20260430T12Z_MSC_GDPS_RelativeVorticity_IsbL-0200_LatLon0.15_PT180H.grib2 2026-04-30 16:31 1.5M
20260430T12Z_MSC_GDPS_RelativeVorticity_IsbL-0250_LatLon0.15_PT180H.grib2 2026-04-30 16:31 1.3M
20260430T12Z_MSC_GDPS_RelativeVorticity_IsbL-0500_LatLon0.15_PT180H.grib2 2026-04-30 16:31 1.5M
20260430T12Z_MSC_GDPS_RelativeVorticity_IsbL-0700_LatLon0.15_PT180H.grib2 2026-04-30 16:31 1.3M
20260430T12Z_MSC_GDPS_RelativeVorticity_IsbL-0850_LatLon0.15_PT180H.grib2 2026-04-30 16:31 1.6M
20260430T12Z_MSC_GDPS_Runoff-Accum_Sfc_LatLon0.15_PT180H.grib2 2026-04-30 16:31 125K
20260430T12Z_MSC_GDPS_SensibleHeatNetFlux_Sfc_LatLon0.15_PT180H.grib2 2026-04-30 16:31 445K
20260430T12Z_MSC_GDPS_ShowalterIndex_IsbL-0500_LatLon0.15_PT180H.grib2 2026-04-30 16:31 6.2M
20260430T12Z_MSC_GDPS_Snow-Accum12h_Sfc_LatLon0.15_PT180H.grib2 2026-04-30 16:31 1.6M
20260430T12Z_MSC_GDPS_Snow-Accum24h_Sfc_LatLon0.15_PT180H.grib2 2026-04-30 16:31 1.6M
20260430T12Z_MSC_GDPS_Snow-Accum6h_Sfc_LatLon0.15_PT180H.grib2 2026-04-30 16:31 1.5M
20260430T12Z_MSC_GDPS_Snow-Accum_Sfc_LatLon0.15_PT180H.grib2 2026-04-30 16:31 2.1M
20260430T12Z_MSC_GDPS_SnowDensity_Sfc_LatLon0.15_PT180H.grib2 2026-04-30 16:31 260K
20260430T12Z_MSC_GDPS_SnowDepth_Sfc_LatLon0.15_PT180H.grib2 2026-04-30 16:31 1.7M
20260430T12Z_MSC_GDPS_SoilTemp_DBS-0to10cm_LatLon0.15_PT180H.grib2 2026-04-30 16:31 514K
20260430T12Z_MSC_GDPS_SoilTemp_Sfc_LatLon0.15_PT180H.grib2 2026-04-30 16:31 579K
20260430T12Z_MSC_GDPS_SoilVolumetricIceContent_Sfc_LatLon0.15_PT180H.grib2 2026-04-30 16:31 184K
20260430T12Z_MSC_GDPS_SoilVolumetricWaterContent_DBS-0to10cm_LatLon0.15_PT180H.grib2 2026-04-30 16:31 595K
20260430T12Z_MSC_GDPS_SoilVolumetricWaterContent_DBS-0to1cm_LatLon0.15_PT180H.grib2 2026-04-30 16:31 651K
20260430T12Z_MSC_GDPS_SpecificHumidity_AGL-120m_LatLon0.15_PT180H.grib2 2026-04-30 16:31 1.1M
20260430T12Z_MSC_GDPS_SpecificHumidity_AGL-2m_LatLon0.15_PT180H.grib2 2026-04-30 16:31 1.2M
20260430T12Z_MSC_GDPS_SpecificHumidity_AGL-40m_LatLon0.15_PT180H.grib2 2026-04-30 16:31 1.1M
20260430T12Z_MSC_GDPS_SpecificHumidity_AGL-80m_LatLon0.15_PT180H.grib2 2026-04-30 16:31 1.1M
20260430T12Z_MSC_GDPS_SpecificHumidity_IsbL-0001_LatLon0.15_PT180H.grib2 2026-04-30 16:31 1.2M
20260430T12Z_MSC_GDPS_SpecificHumidity_IsbL-0005_LatLon0.15_PT180H.grib2 2026-04-30 16:31 1.1M
20260430T12Z_MSC_GDPS_SpecificHumidity_IsbL-0010_LatLon0.15_PT180H.grib2 2026-04-30 16:31 1.2M
20260430T12Z_MSC_GDPS_SpecificHumidity_IsbL-0020_LatLon0.15_PT180H.grib2 2026-04-30 16:31 1.2M
20260430T12Z_MSC_GDPS_SpecificHumidity_IsbL-0030_LatLon0.15_PT180H.grib2 2026-04-30 16:31 1.4M
20260430T12Z_MSC_GDPS_SpecificHumidity_IsbL-0050_LatLon0.15_PT180H.grib2 2026-04-30 16:31 1.5M
20260430T12Z_MSC_GDPS_SpecificHumidity_IsbL-0100_LatLon0.15_PT180H.grib2 2026-04-30 16:31 1.2M
20260430T12Z_MSC_GDPS_SpecificHumidity_IsbL-0150_LatLon0.15_PT180H.grib2 2026-04-30 16:31 1.3M
20260430T12Z_MSC_GDPS_SpecificHumidity_IsbL-0175_LatLon0.15_PT180H.grib2 2026-04-30 16:31 1.3M
20260430T12Z_MSC_GDPS_SpecificHumidity_IsbL-0200_LatLon0.15_PT180H.grib2 2026-04-30 16:31 1.3M
20260430T12Z_MSC_GDPS_SpecificHumidity_IsbL-0225_LatLon0.15_PT180H.grib2 2026-04-30 16:31 1.3M
20260430T12Z_MSC_GDPS_SpecificHumidity_IsbL-0250_LatLon0.15_PT180H.grib2 2026-04-30 16:31 1.2M
20260430T12Z_MSC_GDPS_SpecificHumidity_IsbL-0275_LatLon0.15_PT180H.grib2 2026-04-30 16:31 1.3M
20260430T12Z_MSC_GDPS_SpecificHumidity_IsbL-0300_LatLon0.15_PT180H.grib2 2026-04-30 16:31 1.2M
20260430T12Z_MSC_GDPS_SpecificHumidity_IsbL-0350_LatLon0.15_PT180H.grib2 2026-04-30 16:31 1.2M
20260430T12Z_MSC_GDPS_SpecificHumidity_IsbL-0400_LatLon0.15_PT180H.grib2 2026-04-30 16:31 1.5M
20260430T12Z_MSC_GDPS_SpecificHumidity_IsbL-0450_LatLon0.15_PT180H.grib2 2026-04-30 16:31 1.3M
20260430T12Z_MSC_GDPS_SpecificHumidity_IsbL-0500_LatLon0.15_PT180H.grib2 2026-04-30 16:31 1.4M
20260430T12Z_MSC_GDPS_SpecificHumidity_IsbL-0550_LatLon0.15_PT180H.grib2 2026-04-30 16:31 1.6M
20260430T12Z_MSC_GDPS_SpecificHumidity_IsbL-0600_LatLon0.15_PT180H.grib2 2026-04-30 16:31 1.4M
20260430T12Z_MSC_GDPS_SpecificHumidity_IsbL-0650_LatLon0.15_PT180H.grib2 2026-04-30 16:31 1.5M
20260430T12Z_MSC_GDPS_SpecificHumidity_IsbL-0700_LatLon0.15_PT180H.grib2 2026-04-30 16:31 1.6M
20260430T12Z_MSC_GDPS_SpecificHumidity_IsbL-0750_LatLon0.15_PT180H.grib2 2026-04-30 16:31 1.7M
20260430T12Z_MSC_GDPS_SpecificHumidity_IsbL-0800_LatLon0.15_PT180H.grib2 2026-04-30 16:31 1.9M
20260430T12Z_MSC_GDPS_SpecificHumidity_IsbL-0850_LatLon0.15_PT180H.grib2 2026-04-30 16:31 2.0M
20260430T12Z_MSC_GDPS_SpecificHumidity_IsbL-0875_LatLon0.15_PT180H.grib2 2026-04-30 16:31 2.0M
20260430T12Z_MSC_GDPS_SpecificHumidity_IsbL-0900_LatLon0.15_PT180H.grib2 2026-04-30 16:31 1.9M
20260430T12Z_MSC_GDPS_SpecificHumidity_IsbL-0925_LatLon0.15_PT180H.grib2 2026-04-30 16:31 1.9M
20260430T12Z_MSC_GDPS_SpecificHumidity_IsbL-0950_LatLon0.15_PT180H.grib2 2026-04-30 16:31 1.6M
20260430T12Z_MSC_GDPS_SpecificHumidity_IsbL-0970_LatLon0.15_PT180H.grib2 2026-04-30 16:31 1.5M
20260430T12Z_MSC_GDPS_SpecificHumidity_IsbL-0985_LatLon0.15_PT180H.grib2 2026-04-30 16:31 1.5M
20260430T12Z_MSC_GDPS_SpecificHumidity_IsbL-1000_LatLon0.15_PT180H.grib2 2026-04-30 16:31 1.5M
20260430T12Z_MSC_GDPS_SpecificHumidity_IsbL-1015_LatLon0.15_PT180H.grib2 2026-04-30 16:31 1.5M
20260430T12Z_MSC_GDPS_SpecificHumidity_Sfc_LatLon0.15_PT180H.grib2 2026-04-30 16:31 640K
20260430T12Z_MSC_GDPS_Thickness_IsbL-0850to0700_LatLon0.15_PT180H.grib2 2026-04-30 16:31 464K
20260430T12Z_MSC_GDPS_Thickness_IsbL-1000to0500_LatLon0.15_PT180H.grib2 2026-04-30 16:31 369K
20260430T12Z_MSC_GDPS_Thickness_IsbL-1000to0850_LatLon0.15_PT180H.grib2 2026-04-30 16:31 486K
20260430T12Z_MSC_GDPS_TotalCloudCover_Sfc_LatLon0.15_PT180H.grib2 2026-04-30 16:31 842K
20260430T12Z_MSC_GDPS_TotalTotalsIndex_Sfc_LatLon0.15_PT180H.grib2 2026-04-30 16:31 6.2M
20260430T12Z_MSC_GDPS_UVIndex-ClearSky_Sfc_LatLon0.15_PT180H.grib2 2026-04-30 16:46 1.0M
20260430T12Z_MSC_GDPS_UVIndex_Sfc_LatLon0.15_PT180H.grib2 2026-04-30 16:46 1.5M
20260430T12Z_MSC_GDPS_UpwardLongwaveRadiationFlux_NTAtm_LatLon0.15_PT180H.grib2 2026-04-30 16:31 837K
20260430T12Z_MSC_GDPS_VerticalVelocity_IsbL-0200_LatLon0.15_PT180H.grib2 2026-04-30 16:31 1.1M
20260430T12Z_MSC_GDPS_VerticalVelocity_IsbL-0250_LatLon0.15_PT180H.grib2 2026-04-30 16:31 1.0M
20260430T12Z_MSC_GDPS_VerticalVelocity_IsbL-0500_LatLon0.15_PT180H.grib2 2026-04-30 16:31 1.3M
20260430T12Z_MSC_GDPS_VerticalVelocity_IsbL-0600_LatLon0.15_PT180H.grib2 2026-04-30 16:31 1.3M
20260430T12Z_MSC_GDPS_VerticalVelocity_IsbL-0700_LatLon0.15_PT180H.grib2 2026-04-30 16:31 1.1M
20260430T12Z_MSC_GDPS_VerticalVelocity_IsbL-0850_LatLon0.15_PT180H.grib2 2026-04-30 16:31 1.3M
20260430T12Z_MSC_GDPS_WindChill_Sfc_LatLon0.15_PT180H.grib2 2026-04-30 16:31 5.3M
20260430T12Z_MSC_GDPS_WindDir_AGL-10m_LatLon0.15_PT180H.grib2 2026-04-30 16:31 1.3M
20260430T12Z_MSC_GDPS_WindDir_AGL-120m_LatLon0.15_PT180H.grib2 2026-04-30 16:31 1.4M
20260430T12Z_MSC_GDPS_WindDir_AGL-40m_LatLon0.15_PT180H.grib2 2026-04-30 16:31 1.4M
20260430T12Z_MSC_GDPS_WindDir_AGL-80m_LatLon0.15_PT180H.grib2 2026-04-30 16:31 1.4M
20260430T12Z_MSC_GDPS_WindDir_IsbL-0001_LatLon0.15_PT180H.grib2 2026-04-30 16:31 681K
20260430T12Z_MSC_GDPS_WindDir_IsbL-0005_LatLon0.15_PT180H.grib2 2026-04-30 16:31 810K
20260430T12Z_MSC_GDPS_WindDir_IsbL-0010_LatLon0.15_PT180H.grib2 2026-04-30 16:31 840K
20260430T12Z_MSC_GDPS_WindDir_IsbL-0020_LatLon0.15_PT180H.grib2 2026-04-30 16:31 929K
20260430T12Z_MSC_GDPS_WindDir_IsbL-0030_LatLon0.15_PT180H.grib2 2026-04-30 16:31 931K
20260430T12Z_MSC_GDPS_WindDir_IsbL-0050_LatLon0.15_PT180H.grib2 2026-04-30 16:31 944K
20260430T12Z_MSC_GDPS_WindDir_IsbL-0100_LatLon0.15_PT180H.grib2 2026-04-30 16:31 1.0M
20260430T12Z_MSC_GDPS_WindDir_IsbL-0150_LatLon0.15_PT180H.grib2 2026-04-30 16:31 1.0M
20260430T12Z_MSC_GDPS_WindDir_IsbL-0175_LatLon0.15_PT180H.grib2 2026-04-30 16:31 1.1M
20260430T12Z_MSC_GDPS_WindDir_IsbL-0200_LatLon0.15_PT180H.grib2 2026-04-30 16:31 1.1M
20260430T12Z_MSC_GDPS_WindDir_IsbL-0225_LatLon0.15_PT180H.grib2 2026-04-30 16:31 1.1M
20260430T12Z_MSC_GDPS_WindDir_IsbL-0250_LatLon0.15_PT180H.grib2 2026-04-30 16:31 1.1M
20260430T12Z_MSC_GDPS_WindDir_IsbL-0275_LatLon0.15_PT180H.grib2 2026-04-30 16:31 1.2M
20260430T12Z_MSC_GDPS_WindDir_IsbL-0300_LatLon0.15_PT180H.grib2 2026-04-30 16:31 1.2M
20260430T12Z_MSC_GDPS_WindDir_IsbL-0350_LatLon0.15_PT180H.grib2 2026-04-30 16:31 1.2M
20260430T12Z_MSC_GDPS_WindDir_IsbL-0400_LatLon0.15_PT180H.grib2 2026-04-30 16:31 1.3M
20260430T12Z_MSC_GDPS_WindDir_IsbL-0450_LatLon0.15_PT180H.grib2 2026-04-30 16:31 1.3M
20260430T12Z_MSC_GDPS_WindDir_IsbL-0500_LatLon0.15_PT180H.grib2 2026-04-30 16:31 1.4M
20260430T12Z_MSC_GDPS_WindDir_IsbL-0550_LatLon0.15_PT180H.grib2 2026-04-30 16:31 1.4M
20260430T12Z_MSC_GDPS_WindDir_IsbL-0600_LatLon0.15_PT180H.grib2 2026-04-30 16:31 1.5M
20260430T12Z_MSC_GDPS_WindDir_IsbL-0650_LatLon0.15_PT180H.grib2 2026-04-30 16:31 1.5M
20260430T12Z_MSC_GDPS_WindDir_IsbL-0700_LatLon0.15_PT180H.grib2 2026-04-30 16:31 1.6M
20260430T12Z_MSC_GDPS_WindDir_IsbL-0750_LatLon0.15_PT180H.grib2 2026-04-30 16:31 1.7M
20260430T12Z_MSC_GDPS_WindDir_IsbL-0800_LatLon0.15_PT180H.grib2 2026-04-30 16:31 1.8M
20260430T12Z_MSC_GDPS_WindDir_IsbL-0850_LatLon0.15_PT180H.grib2 2026-04-30 16:31 1.9M
20260430T12Z_MSC_GDPS_WindDir_IsbL-0875_LatLon0.15_PT180H.grib2 2026-04-30 16:31 1.9M
20260430T12Z_MSC_GDPS_WindDir_IsbL-0900_LatLon0.15_PT180H.grib2 2026-04-30 16:31 2.0M
20260430T12Z_MSC_GDPS_WindDir_IsbL-0925_LatLon0.15_PT180H.grib2 2026-04-30 16:31 2.0M
20260430T12Z_MSC_GDPS_WindDir_IsbL-0950_LatLon0.15_PT180H.grib2 2026-04-30 16:31 2.0M
20260430T12Z_MSC_GDPS_WindDir_IsbL-0970_LatLon0.15_PT180H.grib2 2026-04-30 16:31 2.0M
20260430T12Z_MSC_GDPS_WindDir_IsbL-0985_LatLon0.15_PT180H.grib2 2026-04-30 16:31 2.0M
20260430T12Z_MSC_GDPS_WindDir_IsbL-1000_LatLon0.15_PT180H.grib2 2026-04-30 16:31 2.1M
20260430T12Z_MSC_GDPS_WindDir_IsbL-1015_LatLon0.15_PT180H.grib2 2026-04-30 16:31 2.0M
20260430T12Z_MSC_GDPS_WindGust-Max_AGL-10m_LatLon0.15_PT180H.grib2 2026-04-30 16:31 2.2M
20260430T12Z_MSC_GDPS_WindGust-Min_AGL-10m_LatLon0.15_PT180H.grib2 2026-04-30 16:31 2.2M
20260430T12Z_MSC_GDPS_WindGust_AGL-10m_LatLon0.15_PT180H.grib2 2026-04-30 16:31 2.2M
20260430T12Z_MSC_GDPS_WindSpeed_AGL-10m_LatLon0.15_PT180H.grib2 2026-04-30 16:31 1.1M
20260430T12Z_MSC_GDPS_WindSpeed_AGL-120m_LatLon0.15_PT180H.grib2 2026-04-30 16:31 1.2M
20260430T12Z_MSC_GDPS_WindSpeed_AGL-40m_LatLon0.15_PT180H.grib2 2026-04-30 16:31 1.2M
20260430T12Z_MSC_GDPS_WindSpeed_AGL-80m_LatLon0.15_PT180H.grib2 2026-04-30 16:31 1.2M
20260430T12Z_MSC_GDPS_WindSpeed_IsbL-0001_LatLon0.15_PT180H.grib2 2026-04-30 16:31 652K
20260430T12Z_MSC_GDPS_WindSpeed_IsbL-0005_LatLon0.15_PT180H.grib2 2026-04-30 16:31 694K
20260430T12Z_MSC_GDPS_WindSpeed_IsbL-0010_LatLon0.15_PT180H.grib2 2026-04-30 16:31 627K
20260430T12Z_MSC_GDPS_WindSpeed_IsbL-0020_LatLon0.15_PT180H.grib2 2026-04-30 16:31 661K
20260430T12Z_MSC_GDPS_WindSpeed_IsbL-0030_LatLon0.15_PT180H.grib2 2026-04-30 16:31 856K
20260430T12Z_MSC_GDPS_WindSpeed_IsbL-0050_LatLon0.15_PT180H.grib2 2026-04-30 16:31 892K
20260430T12Z_MSC_GDPS_WindSpeed_IsbL-0100_LatLon0.15_PT180H.grib2 2026-04-30 16:31 1.1M
20260430T12Z_MSC_GDPS_WindSpeed_IsbL-0150_LatLon0.15_PT180H.grib2 2026-04-30 16:31 1.0M
20260430T12Z_MSC_GDPS_WindSpeed_IsbL-0175_LatLon0.15_PT180H.grib2 2026-04-30 16:31 1.0M
20260430T12Z_MSC_GDPS_WindSpeed_IsbL-0200_LatLon0.15_PT180H.grib2 2026-04-30 16:31 1.0M
20260430T12Z_MSC_GDPS_WindSpeed_IsbL-0225_LatLon0.15_PT180H.grib2 2026-04-30 16:31 1.1M
20260430T12Z_MSC_GDPS_WindSpeed_IsbL-0250_LatLon0.15_PT180H.grib2 2026-04-30 16:31 868K
20260430T12Z_MSC_GDPS_WindSpeed_IsbL-0275_LatLon0.15_PT180H.grib2 2026-04-30 16:31 1.1M
20260430T12Z_MSC_GDPS_WindSpeed_IsbL-0300_LatLon0.15_PT180H.grib2 2026-04-30 16:31 1.1M
20260430T12Z_MSC_GDPS_WindSpeed_IsbL-0350_LatLon0.15_PT180H.grib2 2026-04-30 16:31 1.1M
20260430T12Z_MSC_GDPS_WindSpeed_IsbL-0400_LatLon0.15_PT180H.grib2 2026-04-30 16:31 1.1M
20260430T12Z_MSC_GDPS_WindSpeed_IsbL-0450_LatLon0.15_PT180H.grib2 2026-04-30 16:31 1.1M
20260430T12Z_MSC_GDPS_WindSpeed_IsbL-0500_LatLon0.15_PT180H.grib2 2026-04-30 16:31 1.1M
20260430T12Z_MSC_GDPS_WindSpeed_IsbL-0550_LatLon0.15_PT180H.grib2 2026-04-30 16:31 1.1M
20260430T12Z_MSC_GDPS_WindSpeed_IsbL-0600_LatLon0.15_PT180H.grib2 2026-04-30 16:31 1.1M
20260430T12Z_MSC_GDPS_WindSpeed_IsbL-0650_LatLon0.15_PT180H.grib2 2026-04-30 16:31 1.2M
20260430T12Z_MSC_GDPS_WindSpeed_IsbL-0700_LatLon0.15_PT180H.grib2 2026-04-30 16:31 1.5M
20260430T12Z_MSC_GDPS_WindSpeed_IsbL-0750_LatLon0.15_PT180H.grib2 2026-04-30 16:31 1.6M
20260430T12Z_MSC_GDPS_WindSpeed_IsbL-0800_LatLon0.15_PT180H.grib2 2026-04-30 16:31 1.6M
20260430T12Z_MSC_GDPS_WindSpeed_IsbL-0850_LatLon0.15_PT180H.grib2 2026-04-30 16:31 1.7M
20260430T12Z_MSC_GDPS_WindSpeed_IsbL-0875_LatLon0.15_PT180H.grib2 2026-04-30 16:31 1.8M
20260430T12Z_MSC_GDPS_WindSpeed_IsbL-0900_LatLon0.15_PT180H.grib2 2026-04-30 16:31 1.9M
20260430T12Z_MSC_GDPS_WindSpeed_IsbL-0925_LatLon0.15_PT180H.grib2 2026-04-30 16:31 1.9M
20260430T12Z_MSC_GDPS_WindSpeed_IsbL-0950_LatLon0.15_PT180H.grib2 2026-04-30 16:31 1.9M
20260430T12Z_MSC_GDPS_WindSpeed_IsbL-0970_LatLon0.15_PT180H.grib2 2026-04-30 16:31 1.9M
20260430T12Z_MSC_GDPS_WindSpeed_IsbL-0985_LatLon0.15_PT180H.grib2 2026-04-30 16:31 1.8M
20260430T12Z_MSC_GDPS_WindSpeed_IsbL-1000_LatLon0.15_PT180H.grib2 2026-04-30 16:31 1.8M
20260430T12Z_MSC_GDPS_WindSpeed_IsbL-1015_LatLon0.15_PT180H.grib2 2026-04-30 16:31 1.8M
20260430T12Z_MSC_GDPS_WindU_AGL-10m_LatLon0.15_PT180H.grib2 2026-04-30 16:31 1.3M
20260430T12Z_MSC_GDPS_WindU_AGL-120m_LatLon0.15_PT180H.grib2 2026-04-30 16:31 1.0M
20260430T12Z_MSC_GDPS_WindU_AGL-40m_LatLon0.15_PT180H.grib2 2026-04-30 16:31 966K
20260430T12Z_MSC_GDPS_WindU_AGL-80m_LatLon0.15_PT180H.grib2 2026-04-30 16:31 973K
20260430T12Z_MSC_GDPS_WindU_IsbL-0001_LatLon0.15_PT180H.grib2 2026-04-30 16:31 505K
20260430T12Z_MSC_GDPS_WindU_IsbL-0005_LatLon0.15_PT180H.grib2 2026-04-30 16:31 693K
20260430T12Z_MSC_GDPS_WindU_IsbL-0010_LatLon0.15_PT180H.grib2 2026-04-30 16:31 700K
20260430T12Z_MSC_GDPS_WindU_IsbL-0020_LatLon0.15_PT180H.grib2 2026-04-30 16:31 729K
20260430T12Z_MSC_GDPS_WindU_IsbL-0030_LatLon0.15_PT180H.grib2 2026-04-30 16:31 735K
20260430T12Z_MSC_GDPS_WindU_IsbL-0050_LatLon0.15_PT180H.grib2 2026-04-30 16:31 757K
20260430T12Z_MSC_GDPS_WindU_IsbL-0100_LatLon0.15_PT180H.grib2 2026-04-30 16:31 859K
20260430T12Z_MSC_GDPS_WindU_IsbL-0150_LatLon0.15_PT180H.grib2 2026-04-30 16:31 1.0M
20260430T12Z_MSC_GDPS_WindU_IsbL-0175_LatLon0.15_PT180H.grib2 2026-04-30 16:31 1.0M
20260430T12Z_MSC_GDPS_WindU_IsbL-0200_LatLon0.15_PT180H.grib2 2026-04-30 16:31 839K
20260430T12Z_MSC_GDPS_WindU_IsbL-0225_LatLon0.15_PT180H.grib2 2026-04-30 16:31 851K
20260430T12Z_MSC_GDPS_WindU_IsbL-0250_LatLon0.15_PT180H.grib2 2026-04-30 16:31 855K
20260430T12Z_MSC_GDPS_WindU_IsbL-0275_LatLon0.15_PT180H.grib2 2026-04-30 16:31 883K
20260430T12Z_MSC_GDPS_WindU_IsbL-0300_LatLon0.15_PT180H.grib2 2026-04-30 16:31 874K
20260430T12Z_MSC_GDPS_WindU_IsbL-0350_LatLon0.15_PT180H.grib2 2026-04-30 16:31 890K
20260430T12Z_MSC_GDPS_WindU_IsbL-0400_LatLon0.15_PT180H.grib2 2026-04-30 16:31 895K
20260430T12Z_MSC_GDPS_WindU_IsbL-0450_LatLon0.15_PT180H.grib2 2026-04-30 16:31 1.1M
20260430T12Z_MSC_GDPS_WindU_IsbL-0500_LatLon0.15_PT180H.grib2 2026-04-30 16:31 1.1M
20260430T12Z_MSC_GDPS_WindU_IsbL-0550_LatLon0.15_PT180H.grib2 2026-04-30 16:31 1.1M
20260430T12Z_MSC_GDPS_WindU_IsbL-0600_LatLon0.15_PT180H.grib2 2026-04-30 16:31 1.2M
20260430T12Z_MSC_GDPS_WindU_IsbL-0650_LatLon0.15_PT180H.grib2 2026-04-30 16:31 1.2M
20260430T12Z_MSC_GDPS_WindU_IsbL-0700_LatLon0.15_PT180H.grib2 2026-04-30 16:31 1.2M
20260430T12Z_MSC_GDPS_WindU_IsbL-0750_LatLon0.15_PT180H.grib2 2026-04-30 16:31 1.3M
20260430T12Z_MSC_GDPS_WindU_IsbL-0800_LatLon0.15_PT180H.grib2 2026-04-30 16:31 1.3M
20260430T12Z_MSC_GDPS_WindU_IsbL-0850_LatLon0.15_PT180H.grib2 2026-04-30 16:31 1.4M
20260430T12Z_MSC_GDPS_WindU_IsbL-0875_LatLon0.15_PT180H.grib2 2026-04-30 16:31 1.5M
20260430T12Z_MSC_GDPS_WindU_IsbL-0900_LatLon0.15_PT180H.grib2 2026-04-30 16:31 1.5M
20260430T12Z_MSC_GDPS_WindU_IsbL-0925_LatLon0.15_PT180H.grib2 2026-04-30 16:31 1.5M
20260430T12Z_MSC_GDPS_WindU_IsbL-0950_LatLon0.15_PT180H.grib2 2026-04-30 16:31 1.4M
20260430T12Z_MSC_GDPS_WindU_IsbL-0970_LatLon0.15_PT180H.grib2 2026-04-30 16:31 1.4M
20260430T12Z_MSC_GDPS_WindU_IsbL-0985_LatLon0.15_PT180H.grib2 2026-04-30 16:31 1.4M
20260430T12Z_MSC_GDPS_WindU_IsbL-1000_LatLon0.15_PT180H.grib2 2026-04-30 16:31 1.4M
20260430T12Z_MSC_GDPS_WindU_IsbL-1015_LatLon0.15_PT180H.grib2 2026-04-30 16:31 1.3M
20260430T12Z_MSC_GDPS_WindV_AGL-10m_LatLon0.15_PT180H.grib2 2026-04-30 16:31 1.3M
20260430T12Z_MSC_GDPS_WindV_AGL-120m_LatLon0.15_PT180H.grib2 2026-04-30 16:31 972K
20260430T12Z_MSC_GDPS_WindV_AGL-40m_LatLon0.15_PT180H.grib2 2026-04-30 16:31 965K
20260430T12Z_MSC_GDPS_WindV_AGL-80m_LatLon0.15_PT180H.grib2 2026-04-30 16:31 972K
20260430T12Z_MSC_GDPS_WindV_IsbL-0001_LatLon0.15_PT180H.grib2 2026-04-30 16:31 717K
20260430T12Z_MSC_GDPS_WindV_IsbL-0005_LatLon0.15_PT180H.grib2 2026-04-30 16:31 862K
20260430T12Z_MSC_GDPS_WindV_IsbL-0010_LatLon0.15_PT180H.grib2 2026-04-30 16:31 886K
20260430T12Z_MSC_GDPS_WindV_IsbL-0020_LatLon0.15_PT180H.grib2 2026-04-30 16:31 847K
20260430T12Z_MSC_GDPS_WindV_IsbL-0030_LatLon0.15_PT180H.grib2 2026-04-30 16:31 849K
20260430T12Z_MSC_GDPS_WindV_IsbL-0050_LatLon0.15_PT180H.grib2 2026-04-30 16:31 972K
20260430T12Z_MSC_GDPS_WindV_IsbL-0100_LatLon0.15_PT180H.grib2 2026-04-30 16:31 1.1M
20260430T12Z_MSC_GDPS_WindV_IsbL-0150_LatLon0.15_PT180H.grib2 2026-04-30 16:31 1.0M
20260430T12Z_MSC_GDPS_WindV_IsbL-0175_LatLon0.15_PT180H.grib2 2026-04-30 16:31 1.0M
20260430T12Z_MSC_GDPS_WindV_IsbL-0200_LatLon0.15_PT180H.grib2 2026-04-30 16:31 835K
20260430T12Z_MSC_GDPS_WindV_IsbL-0225_LatLon0.15_PT180H.grib2 2026-04-30 16:31 845K
20260430T12Z_MSC_GDPS_WindV_IsbL-0250_LatLon0.15_PT180H.grib2 2026-04-30 16:31 847K
20260430T12Z_MSC_GDPS_WindV_IsbL-0275_LatLon0.15_PT180H.grib2 2026-04-30 16:31 877K
20260430T12Z_MSC_GDPS_WindV_IsbL-0300_LatLon0.15_PT180H.grib2 2026-04-30 16:31 867K
20260430T12Z_MSC_GDPS_WindV_IsbL-0350_LatLon0.15_PT180H.grib2 2026-04-30 16:31 878K
20260430T12Z_MSC_GDPS_WindV_IsbL-0400_LatLon0.15_PT180H.grib2 2026-04-30 16:31 1.1M
20260430T12Z_MSC_GDPS_WindV_IsbL-0450_LatLon0.15_PT180H.grib2 2026-04-30 16:31 1.1M
20260430T12Z_MSC_GDPS_WindV_IsbL-0500_LatLon0.15_PT180H.grib2 2026-04-30 16:31 1.1M
20260430T12Z_MSC_GDPS_WindV_IsbL-0550_LatLon0.15_PT180H.grib2 2026-04-30 16:31 1.1M
20260430T12Z_MSC_GDPS_WindV_IsbL-0600_LatLon0.15_PT180H.grib2 2026-04-30 16:31 1.1M
20260430T12Z_MSC_GDPS_WindV_IsbL-0650_LatLon0.15_PT180H.grib2 2026-04-30 16:31 1.2M
20260430T12Z_MSC_GDPS_WindV_IsbL-0700_LatLon0.15_PT180H.grib2 2026-04-30 16:31 1.2M
20260430T12Z_MSC_GDPS_WindV_IsbL-0750_LatLon0.15_PT180H.grib2 2026-04-30 16:31 1.3M
20260430T12Z_MSC_GDPS_WindV_IsbL-0800_LatLon0.15_PT180H.grib2 2026-04-30 16:31 1.3M
20260430T12Z_MSC_GDPS_WindV_IsbL-0850_LatLon0.15_PT180H.grib2 2026-04-30 16:31 1.4M
20260430T12Z_MSC_GDPS_WindV_IsbL-0875_LatLon0.15_PT180H.grib2 2026-04-30 16:31 1.4M
20260430T12Z_MSC_GDPS_WindV_IsbL-0900_LatLon0.15_PT180H.grib2 2026-04-30 16:31 1.5M
20260430T12Z_MSC_GDPS_WindV_IsbL-0925_LatLon0.15_PT180H.grib2 2026-04-30 16:31 1.5M
20260430T12Z_MSC_GDPS_WindV_IsbL-0950_LatLon0.15_PT180H.grib2 2026-04-30 16:31 1.4M
20260430T12Z_MSC_GDPS_WindV_IsbL-0970_LatLon0.15_PT180H.grib2 2026-04-30 16:31 1.4M
20260430T12Z_MSC_GDPS_WindV_IsbL-0985_LatLon0.15_PT180H.grib2 2026-04-30 16:31 1.4M
20260430T12Z_MSC_GDPS_WindV_IsbL-1000_LatLon0.15_PT180H.grib2 2026-04-30 16:31 1.4M
20260430T12Z_MSC_GDPS_WindV_IsbL-1015_LatLon0.15_PT180H.grib2 2026-04-30 16:31 1.3M